Regional Weather Roundup
Issued by NWS

Home | Current Version | Previous Version | Text Only | Print | Product List | Glossary On
Versions: 1 2 3 4 5 6 7 8 9 10 11 12 13 14 15 16 17 18 19 20 21 22 23 24 25 26 27 28 29 30 31 32 33 34 35 36 37 38 39 40 41 42 43 44 45 46 47 48 49 50
000
ASUS43 KMKX 240700
RWRWI

WISCONSIN REGIONAL WEATHER ROUNDUP
NATIONAL WEATHER SERVICE MILWAUKEE/SULLIVAN WI
200 AM CDT SAT JUN 24 2017

NOTE: "FAIR" INDICATES FEW OR NO CLOUDS BELOW 12,000 FEET WITH NO
SIGNIFICANT WEATHER AND/OR OBSTRUCTIONS TO VISIBILITY.

WIZ001-002-006>008-014>016-023>028-240800-
NORTHWEST WISCONSIN

CITY           SKY/WX    TMP DP  RH WIND       PRES   REMARKS
SUPERIOR ARPT  NOT AVBL
ASHLAND        CLOUDY    57  50  77 W9        29.84S
HAYWARD        CLOUDY    56  51  84 CALM      29.88S
SIREN          PTCLDY    53  49  86 CALM      29.92S
CUMBERLAND     PTCLDY    54  46  76 NW7       29.91S
RICE LAKE      MOCLDY    57  48  72 W8        29.92S
CHETEK         PTCLDY    58  50  76 NW7G16    29.90S
LADYSMITH      DRIZZLE   57  52  84 NW8G17    29.90R
EAU CLAIRE     NOT AVBL
MENOMONIE      CLOUDY    58  54  86 W6        29.92R
NEW RICHMOND   PTCLDY    55  48  79 W7        29.94S
OSCEOLA        CLEAR     57  48  73 W7        29.96S
$$

WIZ003>005-009-010-017-018-240800-
NORTH CENTRAL WISCONSIN

CITY           SKY/WX    TMP DP  RH WIND       PRES   REMARKS
MANITOWISH WTR CLOUDY    56  53  89 W9        29.82S
ARBOR VITAE    PTCLDY    57  52  83 NW9       29.82S
WOODRUFF       PTCLDY    57  52  83 NW9       29.82S
RHINELANDER    MOCLDY    54  52  93 W7        29.83R
EAGLE RIVER    CLOUDY    56  49  78 NW5       29.81R
LAND O LAKES   MOCLDY    55  51  85 NW9       29.82S
PHILLIPS       CLOUDY    56  53  92 W6        29.85R
TOMAHAWK       NOT AVBL
MEDFORD        LGT RAIN  56  52  86 W7        29.86S
MERRILL        MOCLDY    56  55  94 W6        29.84S
$$

WIZ029-030-035-036-043>047-240800-
CENTRAL WISCONSIN

CITY           SKY/WX    TMP DP  RH WIND       PRES   REMARKS
WAUSAU         MOCLDY    57  52  83 W10       29.82S
MOSINEE        MOCLDY    55  54  94 W9        29.85S
MARSHFIELD     CLOUDY    58  52  80 W9        29.86R
STEVENS POINT  PTCLDY    56  52  84 W7        29.85R
WAUPACA        PTCLDY    61  54  78 W8        29.83R
WAUTOMA        NOT AVBL
WISC RAPIDS    CLOUDY    60  53  77 NW10      29.87R
CAMP DOUGLAS   NOT AVBL
$$

WIZ011>013-019>022-031-037>040-048>050-240800-
NORTHEAST WISCONSIN

CITY           SKY/WX    TMP DP  RH WIND       PRES   REMARKS
ANTIGO         PTCLDY    54  51  92 W7        29.83R
SHAWANO        PTCLDY    60  53  77 W6        29.79S
OCONTO         CLEAR     54  51  89 W3        29.77S
STURGEON BAY     N/A     59  53  80 W6          N/A
GREEN BAY      CLEAR     59  54  83 W8        29.79S
MANITOWOC      NOT AVBL
APPLETON       CLEAR     55  50  82 W9        29.80R
CLINTONVILLE   MOCLDY    59  50  72 W8        29.80S
OSHKOSH        CLEAR     60  53  77 W6        29.81S
$$

WIZ032>034-041-042-053>061-240800-
SOUTHWEST WISCONSIN

CITY           SKY/WX    TMP DP  RH WIND       PRES   REMARKS
LA CROSSE      MOCLDY    65  53  65 NW13      29.91S
SPARTA         CLOUDY    61  53  74 W7        29.91R
VIROQUA        MOCLDY    59  56  88 W7        29.92S
BOSCOBEL       MOCLDY    63  54  72 SW6       29.92R
PRAIRIE DU CHI CLOUDY    62  52  70 W8        29.94R
PLATTEVILLE    PTCLDY    61  57  84 W7        29.94S
$$

WIZ056-057-062-063-064-067-068-240800-
SOUTH CENTRAL WISCONSIN

CITY           SKY/WX    TMP DP  RH WIND       PRES   REMARKS
REEDSBURG      MOCLDY    59  55  87 W6        29.89R
BARABOO/DELLS  CLEAR     58  51  78 W7        29.88S
LONE ROCK      NOT AVBL
MINERAL POINT  PTCLDY    61  55  82 W9        29.92S
MADISON        MOCLDY    61  54  77 VRB5      29.87S
MIDDLETON      PTCLDY    60  56  85 W9        29.89R
WATERTOWN      CLEAR     61  55  82 W8        29.85S
MONROE         CLEAR     61  54  77 W14       29.91R
JANESVILLE     CLEAR     61  55  82 W8        29.88R
$$

WIZ051-052-058>065-066-070>072-240800-
SOUTHEAST WISCONSIN

CITY           SKY/WX    TMP DP  RH WIND       PRES   REMARKS
MILWAUKEE      CLEAR     65  55  70 W8        29.84R
WAUKESHA       CLEAR     59  52  77 W10       29.85S
MILWAUKEE/TIMM PTCLDY    61  52  72 W9        29.84S
RACINE         PTCLDY    62  54  74 W6        29.86R
KENOSHA        PTCLDY    61  54  77 W9        29.86R
FOND DU LAC    PTCLDY    61  51  70 W10       29.82S
SHEBOYGAN      CLEAR     61  56  83 W9        29.80S
WEST BEND      CLEAR     61  54  77 W8        29.83S
JUNEAU         CLEAR     60  53  77 W5        29.86S
$$

LSZ147-162-240800-
LAKE SUPERIOR

STATION/POSITION TIME  TEMP    WIND        PRES    WAVE
                       AIR SEA DIR/SP/G            HT/PER
                 (UTC) (F)     (DEG/KT/KT) (MB)    (FT/S)
W MID LAKE BUOY  0550   46 39  280/ 12/ 12 1007.9R   1
DEVILS ISLAND    0600   53     250/ 14/ 15 1009.5R
SAXON HARBOR     0640   60     240/  5/ 10 1009.8R
$$

LMZ867-665-643>646-240800-
LAKE MICHIGAN

STATION/POSITION TIME  TEMP    WIND        PRES    WAVE
                       AIR SEA DIR/SP/G            HT/PER
                 (UTC) (F)     (DEG/KT/KT) (MB)    (FT/S)
CHAMBERS ISLAND  0640   60     230/  4/  7 1007.5R
S GREEN BAY BUOY 0630   63     270/ 12/ 16 1007.9R
N MID LAKE BUOY  0550   60 57  230/  6/  6 1007.5R   1
NORTHPORT PIER   0640   60     260/  3/  5 1007.1S
KEWAUNEE LAKESHO 0630   59     290/  3/  4 1008.0S
SHEBOYGAN LAKESH 0600   64     270/ 10/ 12 1008.4R
PORT WASHINGTON  0640   64     290/  8/ 13 1010.2S
ATWATER BUOY     0509   64 60  270/ 10/ 14 1009.8R
MILWAUKEE LAKESH 0630   65     280/ 10/ 13   N/A
S MID LAKE BUOY  0550   64 62  300/ 10/ 12 1009.4R   2/ 4
KENOSHA   LAKESH 0600   65     270/ 10/ 13 1010.5
$$

TC  - TEMPERATURE IN CELSIUS
VSB - VISIBILITY IN STATUTE MILES
WCI - WIND CHILL INDEX
HX  - HEAT INDEX





USA.gov is the U.S. government's official web portal to all federal, state and local government web resources and services.